FW0822 Weather Reports


Display with metric or nautical units.
time (UTC)temp
F
wind
direction
speed
MPH
gust
MPH
rain 1hr
in
rain 24hr
in
rain mn
in
humidity
%
barometer
mb
20260906103012 72 217 0.0 0.0 0.00 0.19 0.00 93 1012.9
20260906101508 72 217 0.0 0.0 0.00 0.19 0.00 93 1012.7
20260906100004 72 217 0.0 0.0 0.00 0.19 0.00 93 1012.5
20260906093113 72 217 0.0 0.0 0.00 0.19 0.00 93 1012.2
20260906091556 72 217 0.0 0.0 0.00 0.19 0.00 93 1012.2
20260906090050 72 217 0.0 0.0 0.00 0.19 0.00 93 1012.1
20260906083049 72 217 0.0 0.0 0.00 0.19 0.00 92 1011.7
20260906081548 71 217 0.0 0.0 0.00 0.19 0.00 92 1011.4
20260906080038 71 217 0.0 0.0 0.00 0.19 0.00 91 1011.4
20260906073033 72 217 0.0 0.0 0.00 0.19 0.00 91 1011.3
20260906071526 72 217 0.0 0.0 0.00 0.19 0.00 91 1011.4
20260906070025 72 217 0.0 0.0 0.00 0.19 0.19 91 1011.5
20260906063024 72 217 0.0 0.0 0.00 0.19 0.19 91 1011.9
20260906061523 72 217 0.0 0.0 0.00 0.19 0.19 91 1011.7
20260906060027 72 217 0.0 0.0 0.00 0.19 0.19 90 1011.8
20260906053028 72 217 0.0 0.0 0.00 0.19 0.19 90 1012.0
20260906051531 73 217 0.0 0.0 0.00 0.19 0.19 90 1012.0
20260906050047 73 217 0.0 0.0 0.00 0.19 0.19 89 1012.3
20260906043023 73 217 0.0 0.0 0.00 0.19 0.19 89 1012.5
20260906041523 73 217 0.0 0.0 0.00 0.19 0.19 89 1012.5
20260906040022 73 217 0.0 0.0 0.00 0.19 0.19 89 1012.6
20260906033026 73 217 0.0 0.0 0.00 0.19 0.19 88 1012.6
20260906031526 74 217 0.0 0.0 0.00 0.19 0.19 88 1012.6
20260906030021 74 217 0.0 0.0 0.00 0.19 0.19 88 1012.4
20260906023024 74 217 0.0 0.0 0.00 0.19 0.19 88 1012.1
20260906021520 74 217 0.0 0.0 0.00 0.19 0.19 87 1012.0
20260906020020 74 217 0.0 0.0 0.00 0.19 0.19 87 1011.7
20260906013020 74 217 0.0 0.0 0.00 0.19 0.19 87 1011.5
20260906011520 74 217 0.0 0.0 0.00 0.19 0.19 86 1011.5
20260906010020 74 217 0.0 0.0 0.00 0.19 0.19 85 1011.4
20260906003019 75 217 0.0 0.0 0.00 0.19 0.19 85 1011.3
20260906001518 76 217 0.0 0.0 0.00 0.19 0.19 84 1010.9
20260906000018 76 217 0.0 0.0 0.00 0.27 0.19 84 1010.9
20260905233025 78 217 0.0 0.0 0.00 0.27 0.19 83 1010.5
20260905231518 78 217 0.0 0.0 0.00 0.27 0.19 84 1010.4
20260905230017 79 217 0.0 0.0 0.00 0.38 0.19 84 1010.3
20260905223016 78 217 0.0 0.0 0.00 0.38 0.19 84 1010.3
20260905221515 78 213 0.0 0.0 0.00 0.38 0.19 87 1010.4
20260905220016 77 213 0.0 0.0 0.00 0.38 0.19 87 1010.7
20260905213014 76 213 0.0 0.0 0.00 0.38 0.19 91 1010.8
20260905211513 76 215 0.0 0.0 0.00 0.38 0.19 91 1010.9
20260905210014 75 202 0.0 0.0 0.00 0.38 0.19 91 1011.2
20260905203015 75 209 0.0 0.0 0.00 0.38 0.19 89 1010.6
20260905201513 76 209 0.0 0.0 0.00 0.38 0.19 87 1011.0
20260905200019 77 209 0.0 0.0 0.02 0.41 0.19 86 1011.4
20260905193024 79 128 0.0 0.0 0.19 0.41 0.19 79 1010.5
20260905191511 82 128 0.0 0.0 0.19 0.41 0.19 77 1010.6
20260905190014 85 128 0.0 0.0 0.18 0.40 0.18 70 1010.9
20260905183014 91 223 0.0 0.0 0.00 0.22 0.00 57 1011.5
20260905181512 91 202 0.0 0.0 0.00 0.22 0.00 63 1010.3
20260905180007 91 202 0.0 0.0 0.00 0.22 0.00 65 1010.7
20260905173110 90 202 0.0 0.0 0.00 0.22 0.00 67 1011.1
20260905171558 89 202 0.0 0.0 0.00 0.22 0.00 67 1011.8
20260905170056 89 202 0.0 0.0 0.00 0.22 0.00 67 1012.2
20260905163056 88 204 0.0 1.0 0.00 0.22 0.00 69 1012.4
20260905161548 87 202 0.0 4.0 0.00 0.22 0.00 68 1012.6
20260905160052 86 208 0.0 0.0 0.00 0.22 0.00 71 1012.7
20260905153041 84 232 0.0 0.0 0.00 0.22 0.00 76 1012.9
20260905151537 83 225 0.0 0.0 0.00 0.22 0.00 76 1013.1
20260905150034 81 226 0.0 1.0 0.00 0.22 0.00 80 1013.3
20260905143027 77 227 0.0 0.0 0.00 0.22 0.00 93 1013.2
20260905141541 76 210 0.0 0.0 0.00 0.22 0.00 95 1013.2
20260905140020 75 207 0.0 0.0 0.00 0.22 0.00 96 1013.2
20260905133021 74 207 0.0 0.0 0.00 0.22 0.00 96 1013.2
20260905131515 73 207 0.0 0.0 0.00 0.22 0.00 95 1013.2
20260905130013 72 207 0.0 0.0 0.00 0.22 0.00 95 1013.4
20260905123013 72 226 0.0 0.0 0.00 0.22 0.00 95 1013.6
20260905121512 71 226 0.0 0.0 0.00 0.22 0.00 95 1013.5
20260905120009 71 226 0.0 0.0 0.00 0.22 0.00 94 1013.4
20260905113007 71 226 0.0 0.0 0.00 0.22 0.00 94 1012.9
20260905111504 71 226 0.0 0.0 0.00 0.22 0.00 94 1012.8
20260905110007 72 226 0.0 0.0 0.00 0.22 0.00 94 1012.8